SL-19 DEB, 23479

Orbit data source: Space-Track

SL-19 DEB, 23479 is space debris in LEO originally from a launch on Mon, 26 Dec 1994 UTC launched from the Tyuratam Missile And Space Complex (TTMTR). Debris objects in space refer to the collection of defunct objects orbiting the Earth. Examples of debris include non-operational satellites, rocket bodies, and fragments generated from explosions, collisions, or faulty payload assembly.

Loading next visibility...
Identifier
23479, 1994-085C
Orbit
LEO
Last TLE update
20 hours ago
Origin
Manufacturer
Unknown
Mission
Spacecraft
Bus & Motor
Unknown
Mass
Unknown
Launch date (UTC)
1994-12-26 (30 years ago)
Launch vehicle
Unknown
Launch site
Tyuratam Missile And Space Complex (TTMTR)
Object type
Payload
Rocket body
Debris
Shape & HBR
Unknown
Radar Cross Section
Medium (>0.1 m² and <1 m²)

Expand to show TLE details & history

TLE from 20 hours ago
0 SL-19 DEB
1 23479U 94085C   25128.42810685 -.00000910  00000-0 -20482-1 0  9992
2 23479  65.0445 178.6442 0077094  73.1537  24.6114 11.45192398266865
Epoch: 2025-05-08T10:16Z
Definitive object data (Epoch: 2025-05-08T10:16:28.431Z)
Latitude
63.93654°
Longitude
-93.23423°
Altitude
1,887.885 km
Speed
6.976 km/s
True Right ascension
19h 09m 31s
True Declination
63° 49' 09"
Sunlit
Object was in daylight at TLE epoch
Visualization TLE readout
Latitude
-4.55375°
Longitude
154.50282°
Altitude
1,924.462 km
Speed
6.936 km/s
Apparent Right ascension
09h 16m 42s
Apparent Declination
-37° 53' 32"
Sunlit
Object is in daylight
Visualization observer readout
Local Sidereal Time
14:47:16
Azimuth
235.601° WSW
Elevation
-18.458°
Doppler factor
1
Orbital elements
Apogee altitude
1,998.84 km
Perigee altitude
1,870.665 km
Semi-major axis
8,312.889 km
Eccentricity
0.0077094
Inclination
65.0445°
RAAN
178.6442°
Arg. of periapsis
73.1537°
True anomaly
24.98256°
Mean anomaly
24.6114°
Eccentric anomaly
24.79666°
Mean motion
2.86362 °/min
BSTAR
-0.020482
Orbital period
125.72 mins
Loading maneuver chart data...
Loading SW <> Apogee altitude chart data...
Loading historical data...
Loading historical data...
Loading historical data...
Loading historical data...
Loading historical data...
Loading historical data...
Loading historical data...

SL-19 DEB Visibility forecast

Observer location: undefined°, undefined°

Span
Click to sort rows by Start time (UTC) header in descending order
Start Az.
Max El. time (UTC)
Max El. Az.
Max El.
End time (UTC)
End Az.
18 mins2025-05-09 06:51:24.621Z258.547° W2025-05-09 07:00:24.621Z320.542° NNW30.45°2025-05-09 07:09:24.621Z22.659° NE
11 mins2025-05-09 09:10:24.621Z324.261° NNW2025-05-09 09:15:24.621Z355.503° N16.83°2025-05-09 09:21:24.621Z31.027° NE
16 mins2025-05-09 11:23:24.621Z340.876° N2025-05-09 11:30:24.621Z26.565° NE23.689°2025-05-09 11:39:24.621Z82.808° E
20 mins2025-05-09 13:33:24.621Z331.087° NNW2025-05-09 13:43:24.621Z67.55° E43.965°2025-05-09 13:53:24.621Z141.196° SSE
15 mins2025-05-09 15:45:24.621Z303.568° NW2025-05-09 15:52:24.621Z256.026° W25.895°2025-05-09 16:00:24.621Z205.084° SW
18 mins2025-05-10 03:42:24.621Z173.705° S2025-05-10 03:51:24.621Z106.852° ESE35.089°2025-05-10 04:00:24.621Z43.677° NE
19 mins2025-05-10 05:52:24.621Z238.185° WSW2025-05-10 06:01:24.621Z313.411° NW38.906°2025-05-10 06:11:24.621Z26.412° NE
|